CLASSIFICA

CORRIFREGENE

(10/02/2019)

DIVISIONI:
COMPETITIVA     CLASSIFICA:   ASSOLUTA    M     F    
CATEGORIE:   TUTTE    |   SF   |   SF35   |   SF40   |   SF45   |   SF50   |   SF55   |   SF60   |   SF65   |   SM   |   SM35   |   SM40   |   SM45   |   SM50   |   SM55   |   SM60   |   SM65   |   SM70   |   SM75  
ALTRO: Classifica Squadre 
FILTRO:
  Atleta      Team        Pulisci       Atleti classificati COMPETITIVA: 946  

Cliccare sulle colonne per cambiare ordinamento
Azioni - Pos. M/F Cat. P.Cat. Pett Naz Atleta Squadra Tempo Distacco in tempo Distacco in metri Min/Km RealTime
1 55SM4011982CASALINI VITTORIOTIRRENO ATLETICA CIVITAVECCHIA01:15:38 00:01:22 381 00:03:35 01:15:38
2 77SM4023CAPOCCIA SIMONEMENTANA RUN CLUB01:19:55 00:05:39 1.490 00:03:47 01:19:55
3 1212SM4031371MARTIN DANILOA.S. AMATORI VILLA PAMPHILI01:20:47 00:06:31 1.700 00:03:50 01:20:47
4 1919SM4042229DE LUCA LUIGIA.S.D. ATLETICA MONTE MARIO01:22:29 00:08:13 2.100 00:03:55 01:22:23
5 2020SM4051876LO RE CORRADOA.S.D. NOI POCHI INTIMI01:22:29 00:08:13 2.100 00:03:55 01:22:28
6 2222SM4061676ODORISI UGOASD SPARTAN SPORT ACADEMY01:23:07 00:08:51 2.245 00:03:57 01:23:05
7 2323SM4072DEL NEGRO ROBERTOG.S. BANCARI ROMANI01:23:12 00:08:56 2.264 00:03:57 01:23:12
8 2424SM4081508COCCHIA DOMENICO ALESSANDROG.S. BANCARI ROMANI01:24:12 00:09:56 2.487 00:04:00 01:24:11
9 4443SM4091610MANISCALCHI FABIOA.S.D. PODISTICA POMEZIA01:26:35 00:12:19 2.999 00:04:06 01:26:32
10 4645SM40102298CATANIA CLAUDIOATLETICA FORUM SPORT CENTER01:26:51 00:12:35 3.055 00:04:07 01:26:51
11 4746SM40111576MARZULLO PAOLODUE PONTI SRL01:26:55 00:12:39 3.068 00:04:07 01:26:45
12 5352SM40121913VALENTI LUCAA.S.D. INAPNEA01:28:04 00:13:48 3.304 00:04:11 01:27:58
13 6362SM40131557BRAVETTI MARCOLAZIO RUNNERS TEAM A.S.D.01:29:06 00:14:50 3.510 00:04:14 01:29:01
14 6968SM40141776SALVATORE SALVAGGIOA.S.D. NOTO BAROCCA01:30:05 00:15:49 3.702 00:04:16 01:30:05
15 7169SM40152510INNOCENTI VITTORIOINDIVIDUALI01:30:22 00:16:06 3.756 00:04:17 01:30:16
16 7270SM40161846LIORI IVANCAGLIARI ATLETICA LEGGERA01:30:25 00:16:09 3.766 00:04:17 01:30:14
17 7775SM40171804ASCOLI CARLOPODISTICA CASALOTTI01:30:52 00:16:36 3.852 00:04:19 01:30:44
18 7977SM40181966CALABRESE CLAUDIOASD RUNNER TRAINER01:31:01 00:16:45 3.880 00:04:19 01:30:39
19 8078SM40191683CARDELLI TIZIANORUNNERS FOR EMERGENCY01:31:04 00:16:48 3.889 00:04:19 01:31:04
20 8179SM40201644DE PASCALE PASQUALINOA.S.D. LBM SPORT TEAM01:31:09 00:16:53 3.905 00:04:19 01:31:05
21 8583SM40211700MARTINOLI MAURIZIORUNNERS FOR EMERGENCY01:31:36 00:17:20 3.990 00:04:21 01:31:30
22 8785SM40221550TIMEUS ALEXRUNCARD FIDAL01:31:46 00:17:30 4.021 00:04:21 01:31:38
23 9290SM40232502DE SANTIS DANIELEROMA ECO MARATONA01:32:26 00:18:10 4.144 00:04:23 01:32:25
24 9795SM40242404MANCUSO FABIOS.S. LAZIO ATLETICA LEGGERA01:33:05 00:18:49 4.262 00:04:25 01:32:41
25 105102SM40251899PAOLINI GIAMPIEROPODISTI VALMONTONE01:33:51 00:19:35 4.399 00:04:27 01:33:31
26 107104SM40261567BITETTI MARCOA.S.D. ATLETICA ENERGIA ROMA01:33:57 00:19:41 4.417 00:04:27 01:33:51
27 115112SM40272141FEDERICI ALESSANDROA.S. AMATORI VILLA PAMPHILI01:34:33 00:20:17 4.523 00:04:29 01:34:11
28 116113SM40282143FILIPPONI MARCOA.S. AMATORI VILLA PAMPHILI01:34:35 00:20:19 4.529 00:04:29 01:34:30
29 123120SM40291608DE RINALDI STEFANOA.S.D. PODISTICA POMEZIA01:34:59 00:20:43 4.599 00:04:30 01:34:56
30 125122SM40301524BIANCALANA EMILIANOASD PUROSANGUE ATHLETICS CLUB01:35:04 00:20:48 4.613 00:04:31 01:34:59
31 126123SM40312405POSADO CLAUDIOASD SPIRITI LIBERI POMEZIA01:35:12 00:20:56 4.636 00:04:31 01:34:53
32 133130SM40321630ERCULEI FABRIZIOA.S.D. ATLETICA VILLA GUGLIELMI01:35:33 00:21:17 4.696 00:04:32 01:35:22
33 137134SM40332027CAVACINI CLAUDIOASD OLIMPIAEUR CAMP01:36:07 00:21:51 4.793 00:04:34 01:35:42
34 138135SM40342534CADME PARRASABINA MARATHON CLUB01:36:09 00:21:53 4.799 00:04:34 01:36:08
35 142139SM40352360MELONI SIMONEPOD. GRUPPO SOLIDARIETA01:36:13 00:21:57 4.810 00:04:34 01:35:52
36 146143SM40361952MOSTORINO RIVERA WILLIAM ALFREDOG.S. CAT SPORT ROMA01:36:23 00:22:07 4.838 00:04:34 01:36:04
37 169165SM40371556GALLI EMILIANORUNCARD FIDAL01:37:57 00:23:41 5.098 00:04:39 01:37:52
38 171167SM40382349GIORGI DAVIDPOD. GRUPPO SOLIDARIETA01:38:01 00:23:45 5.109 00:04:39 01:37:36
39 173169SM40391933CIOCE ANDREAG.S. CAT SPORT ROMA01:38:05 00:23:49 5.120 00:04:39 01:37:33
40 186178SM40401862TANZILLO RAFFAELEGS BANCARI ROMANI01:38:59 00:24:43 5.265 00:04:42 01:38:30
41 198189SM40411527CAMPAGNA REMORUNCARD01:39:23 00:25:07 5.328 00:04:43 01:39:19
42 202192SM40421629VELLUCCI IVANOASD X-SOLID SPORT LAB01:39:57 00:25:41 5.418 00:04:44 01:39:42
43 209199SM40431773DE MATTOS BRUNOA.S.D. LBM SPORT TEAM01:40:20 00:26:04 5.478 00:04:46 01:40:07
44 215205SM40441636PETRACCHINI FRANCESCOSABINA MARATHON CLUB01:40:37 00:26:21 5.522 00:04:46 01:40:18
45 221209SM40451522ZAMPA SIMONERUNCARD FIDAL01:40:47 00:26:31 5.547 00:04:47 01:40:29
46 222210SM40461601ATZENI ANDREAA.S.D. MAGIC TRAINING01:40:52 00:26:36 5.560 00:04:47 01:40:15
47 242228SM40471895PAVIA LUCAA.S.D. ATLETICA TUSCULUM01:41:32 00:27:16 5.662 00:04:49 01:41:01
48 244229SM40482191PIERANTONI SIMONEA.S. AMATORI VILLA PAMPHILI01:41:43 00:27:27 5.690 00:04:49 01:41:26
49 254238SM40491617BELLAVITE LUCAASD X-SOLID SPORT LAB01:41:59 00:27:43 5.730 00:04:50 01:41:20
50 263247SM40502230DE SOLE ALBERTOA.S.D. ATLETICA MONTE MARIO01:42:11 00:27:55 5.760 00:04:51 01:40:32
51 265249SM40512128CIAVAGLIA FEDERICOA.S. AMATORI VILLA PAMPHILI01:42:17 00:28:01 5.775 00:04:51 01:42:06
52 275259SM40521703NAZZARRO GIUSEPPERUNNERS FOR EMERGENCY01:42:32 00:28:16 5.813 00:04:52 01:42:13
53 282264SM40531751ANDOLINA ANDREAA.S.C.D. ISOLA SACRA01:42:46 00:28:30 5.847 00:04:52 01:42:21
54 295276SM40542270DI MASCIO DANIELERUNCARD FIDAL01:43:25 00:29:09 5.943 00:04:54 01:43:02
55 308288SM40552138DI GRAZIA IVAN DANIELA.S. AMATORI VILLA PAMPHILI01:43:47 00:29:31 5.996 00:04:55 01:43:33
56 318297SM40562302DI LORETO DANIELEATLETICA FORUM SPORT CENTER01:44:29 00:30:13 6.098 00:04:57 01:43:55
57 320299SM40571586SCAGNETTI MARCORM32101:44:33 00:30:17 6.107 00:04:58 01:43:31
58 321300SM40581989AMICI ALESSANDROA.S.D. ATLETICA PEGASO01:44:34 00:30:18 6.110 00:04:58 01:43:51
59 329308SM40592157IRRONEO EMILIANOA.S. AMATORI VILLA PAMPHILI01:44:51 00:30:35 6.150 00:04:58 01:44:18
60 347325SM40601536LANZI DANIELERUNCARD FIDAL01:45:32 00:31:16 6.247 00:05:00 01:45:22
61 358335SM40612058DI MASCIO GIANLUCARUNNERS FOR EMERGENCY01:45:58 00:31:42 6.307 00:05:02 01:45:37
62 363340SM40622403SPERANZA MARCOPOD. GRUPPO SOLIDARIETA01:46:12 00:31:56 6.340 00:05:02 01:45:06
63 374349SM40631597ORSINO GUGLIELMOA.S.D. ATLETICA VILLA GUGLIELMI01:46:49 00:32:33 6.425 00:05:04 01:45:32
64 389361SM40642148GARGANO GIACOMOA.S. AMATORI VILLA PAMPHILI01:47:35 00:33:19 6.529 00:05:06 01:46:26
65 393365SM40651831SANTORO FABRIZIOA.S.D. RINCORRO01:47:49 00:33:33 6.561 00:05:07 01:47:02
66 405375SM40661381MEBRAHTU JOSEPH ITALOASD WAR - WIN ALL RACES01:48:14 00:33:58 6.617 00:05:08 01:48:10
67 407377SM40672008FANARI MARCORUNCARD FIDAL01:48:23 00:34:07 6.637 00:05:08 01:47:48
68 412380SM40681997ZUCCHERI EMANUELIPPOLIFE SSD01:48:31 00:34:15 6.655 00:05:09 01:47:55
69 414382SM40692379TRAVAGLIONE ETTOREPOD. GRUPPO SOLIDARIETA01:48:36 00:34:20 6.666 00:05:09 01:47:32
70 418384SM40701693DAVIDE CORDUARUNNERS FOR EMERGENCY01:48:51 00:34:35 6.699 00:05:10 01:48:30
71 420385SM40711853PIERLUIGI FELICIRUNCARD FIDAL01:48:53 00:34:37 6.703 00:05:10 01:48:26
72 421386SM40721739CIOCE MICHELEA.S.D. LBM SPORT TEAM01:48:55 00:34:39 6.708 00:05:10 01:48:12
73 429392SM40731975NADDEO LUCAASD RUNNER TRAINER01:49:15 00:34:59 6.752 00:05:11 01:48:21
74 439401SM40742213TREGLIA PAOLOA.S. AMATORI VILLA PAMPHILI01:49:24 00:35:08 6.771 00:05:11 01:48:30
75 441402SM40752206SORRENTI LUIGIA.S. AMATORI VILLA PAMPHILI01:49:25 00:35:09 6.773 00:05:11 01:49:08
76 449408SM40761738ROSSI DEL MONTE SIMONERUNCARD FIDAL01:49:49 00:35:33 6.825 00:05:13 01:48:58
77 451410SM40772144FIORETTI FABIOA.S. AMATORI VILLA PAMPHILI01:49:53 00:35:37 6.834 00:05:13 01:49:30
78 482435SM40781513ROCCA FILIPPOA.S.D. ATLETICA MONTE MARIO01:51:22 00:37:06 7.024 00:05:17 01:51:03
79 489440SM40792112CIMARELLI MASSIMOALMAVIVA RUNNERS01:51:35 00:37:19 7.051 00:05:18 01:51:01
80 491442SM40801851PARLATI EMANUELERUNCARD FIDAL01:51:39 00:37:23 7.060 00:05:18 01:50:53
81 524464SM40811912PENSO FABIOCALCATERRA SPORT ASD01:53:10 00:38:54 7.248 00:05:22 01:52:05
82 529469SM40822238GIANNINI EUGENIOA.S.D. ATLETICA MONTE MARIO01:53:17 00:39:01 7.262 00:05:22 01:52:58
83 547486SM40832019BIELLO ANDREAA.S.D. VEGAN POWER TEAM01:54:00 00:39:44 7.349 00:05:24 01:53:34
84 548487SM40842279PERILLI BIAGIOMARATHON ROMA CASTELFUSANO01:54:01 00:39:45 7.351 00:05:24 01:53:28
85 560495SM40851647COLOMBO GUIDOA.S.D. ATLETICA SABAUDIA - LT 31001:54:37 00:40:21 7.423 00:05:26 01:54:05
86 561496SM40861563DIOSI STEFANOA.S.D. PODISTICA ALSIVM LADISPOLI01:54:45 00:40:29 7.439 00:05:27 01:54:17
87 562497SM40871763VARCHETTA LUCIOA.S.C.D. ISOLA SACRA01:54:45 00:40:29 7.439 00:05:27 01:54:04
88 566500SM40882108ALTOBELLI FILIBERTOA.S.D. TRA LE RIGHE01:54:56 00:40:40 7.460 00:05:27 01:54:29
89 572503SM40891870TRANQUILLI LUCAA.S.D. ROMA ROAD RUNNERS CLUB01:55:06 00:40:50 7.480 00:05:28 01:54:47
90 574505SM40901674MACCALLINI ENRICORCC TEVERE REMO01:55:10 00:40:54 7.488 00:05:28 01:54:04
91 602524SM40911963TUCCI FABRIZIOG.S. CAT SPORT ROMA01:56:40 00:42:24 7.663 00:05:32 01:56:19
92 610529SM40922063BELLO EMMANUELERUNNING EVOLUTION COLLINE ROMANE01:57:02 00:42:46 7.705 00:05:33 01:56:24
93 623539SM40932512MAGGI ANDREAFULMINI E SAETTE A.S.D.01:57:38 00:43:22 7.773 00:05:35 01:56:50
94 625541SM40941786BORRACCINO MARCOA.S.D. LBM SPORT TEAM01:57:42 00:43:26 7.781 00:05:35 01:56:54
95 636550SM40952119BOREA PROSPEROA.S. AMATORI VILLA PAMPHILI01:57:53 00:43:37 7.801 00:05:35 01:57:31
96 682587SM40962384RUSSO FABIORUNNING EVOLUTION COLLINE ROMANE01:59:54 00:45:38 8.025 00:05:41 01:58:56
97 683588SM40972195PROSPERI FABRIZIOA.S. AMATORI VILLA PAMPHILI01:59:56 00:45:40 8.028 00:05:41 01:58:56
98 693596SM40982258SOMMA ANTONELLO MARIAA.S.D. ATLETICA MONTE MARIO02:00:13 00:45:57 8.059 00:05:42 01:59:11
99 694597SM40991699WALTER SPERANZARUNNERS FOR EMERGENCY02:00:15 00:45:59 8.063 00:05:42 01:59:12
100 726618SM401002162LO BOSCO LUCAA.S. AMATORI VILLA PAMPHILI02:02:24 00:48:08 8.291 00:05:48 02:01:48
101 729619SM401012060PERRI ALESSANDRORUNNERS FOR EMERGENCY02:02:45 00:48:29 8.328 00:05:49 02:01:37
102 756639SM401022429TINO VINCENZOG.S. CAT SPORT ROMA02:05:09 00:50:53 8.573 00:05:56 02:04:38
103 759641SM401032406PECORELLA FABIOA.S.C.D. ISOLA SACRA02:05:18 00:51:02 8.588 00:05:57 02:04:34
104 760642SM401042168MARMOLEJOS PORFIRIOA.S. AMATORI VILLA PAMPHILI02:05:19 00:51:03 8.589 00:05:57 02:04:10
105 798668SM401051517SCACCIA VINCENZORUNCARD FIDAL02:08:37 00:54:21 8.910 00:06:06 02:07:33
106 811676SM401061945FRANCIONE MICHELEG.S. CAT SPORT ROMA02:09:33 00:55:17 8.998 00:06:09 02:09:08
107 814679SM401071736TESTA VINCENZOA.S.D. RUN FOR FUN02:09:46 00:55:30 9.018 00:06:09 02:09:09
108 819682SM401082332COSTABILE FRANCESCOPOD. GRUPPO SOLIDARIETA02:10:05 00:55:49 9.047 00:06:10 02:09:53
109 846699SM401092170MASSACCESI PATRICKA.S. AMATORI VILLA PAMPHILI02:12:22 00:58:06 9.255 00:06:17 02:11:21
110 850702SM401102347GALLO STEFANOPOD. GRUPPO SOLIDARIETA02:12:56 00:58:40 9.305 00:06:18 02:11:48
111 855704SM401111516SCAFETTA ROMOLORUNCARD FIDAL02:13:07 00:58:51 9.321 00:06:19 02:12:05
112 862708SM401122426PIRTI ANDREAG.S. CAT SPORT ROMA02:13:41 00:59:25 9.371 00:06:20 02:12:42
113 908735SM401132330COCCHIERI BRUNOPOD. GRUPPO SOLIDARIETA02:25:07 01:10:51 10.294 00:06:53 02:24:22
Righe per pagina::     TUTTE    |   30   |   50   |   100